Time,TemperatureF,DewpointF,PressureIn,WindDirection,WindDirectionDegrees,WindSpeedMPH,WindSpeedGustMPH,Humidity,HourlyPrecipIn,Conditions,Clouds,dailyrainin,SoftwareType,DateUTC
2015-07-03 00:03:00,76.0,73.0,29.88,WSW,241,1.0,-999.0,91,-99.99,,,-99.99,,2015-07-03 05:03:00,
2015-07-03 00:13:00,76.0,73.0,29.88,WSW,241,1.0,-999.0,91,-99.99,,,-99.99,,2015-07-03 05:13:00,
2015-07-03 00:23:00,76.0,73.0,29.88,WSW,241,1.0,-999.0,91,-99.99,,,-99.99,,2015-07-03 05:23:00,
2015-07-03 00:33:00,77.0,74.0,29.87,WSW,249,2.0,-999.0,89,-99.99,,,-99.99,,2015-07-03 05:33:00,
2015-07-03 00:43:00,77.0,74.0,29.87,WSW,249,2.0,-999.0,89,-99.99,,,-99.99,,2015-07-03 05:43:00,
2015-07-03 00:54:00,77.0,74.0,29.87,WSW,249,2.0,-999.0,89,-99.99,,,-99.99,,2015-07-03 05:54:00,
2015-07-03 01:03:00,77.0,74.0,29.86,SW,220,3.0,-999.0,89,-99.99,,,-99.99,,2015-07-03 06:03:00,
2015-07-03 01:13:00,77.0,74.0,29.86,SW,234,1.0,-999.0,89,-99.99,,,-99.99,,2015-07-03 06:13:00,
2015-07-03 01:23:00,77.0,74.0,29.86,SW,234,1.0,-999.0,89,-99.99,,,-99.99,,2015-07-03 06:23:00,
2015-07-03 01:34:00,77.0,74.0,29.85,NNW,327,2.0,-999.0,89,-99.99,,,-99.99,,2015-07-03 06:34:00,
2015-07-03 01:44:00,77.0,74.0,29.85,WSW,245,3.0,-999.0,89,-99.99,,,-99.99,,2015-07-03 06:44:00,
2015-07-03 02:03:00,77.0,74.0,29.84,WSW,249,1.0,-999.0,89,-99.99,,,-99.99,,2015-07-03 07:03:00,
2015-07-03 02:13:00,77.0,74.0,29.83,SW,221,2.0,-999.0,90,-99.99,,,-99.99,,2015-07-03 07:13:00,
2015-07-03 02:23:00,77.0,74.0,29.83,SW,235,2.0,-999.0,90,-99.99,,,-99.99,,2015-07-03 07:23:00,
2015-07-03 02:33:00,77.0,74.0,29.83,SW,233,1.0,-999.0,90,-99.99,,,-99.99,,2015-07-03 07:33:00,
2015-07-03 02:43:00,77.0,74.0,29.83,SW,233,1.0,-999.0,90,-99.99,,,-99.99,,2015-07-03 07:43:00,
2015-07-03 02:53:00,77.0,74.0,29.83,SW,233,1.0,-999.0,90,-99.99,,,-99.99,,2015-07-03 07:53:00,
2015-07-03 03:03:00,77.0,74.0,29.83,West,277,0.0,-999.0,90,-99.99,,,-99.99,,2015-07-03 08:03:00,
2015-07-03 03:13:00,77.0,74.0,29.83,West,277,0.0,-999.0,90,-99.99,,,-99.99,,2015-07-03 08:13:00,
2015-07-03 03:23:00,77.0,74.0,29.83,West,277,0.0,-999.0,90,-99.99,,,-99.99,,2015-07-03 08:23:00,
2015-07-03 03:33:00,76.0,73.0,29.82,WSW,246,2.0,-999.0,91,-99.99,,,-99.99,,2015-07-03 08:33:00,
2015-07-03 03:43:00,76.0,73.0,29.82,WSW,246,2.0,-999.0,91,-99.99,,,-99.99,,2015-07-03 08:43:00,
2015-07-03 03:53:00,76.0,73.0,29.82,WSW,246,2.0,-999.0,91,-99.99,,,-99.99,,2015-07-03 08:53:00,
2015-07-03 04:03:00,76.0,73.0,29.82,WSW,246,2.0,-999.0,91,-99.99,,,-99.99,,2015-07-03 09:03:00,
2015-07-03 04:13:00,76.0,73.0,29.82,WSW,246,2.0,-999.0,91,-99.99,,,-99.99,,2015-07-03 09:13:00,
2015-07-03 04:44:00,74.0,72.0,29.85,West,272,6.0,-999.0,95,-99.99,,,-99.99,,2015-07-03 09:44:00,
2015-07-03 04:53:00,73.0,71.0,29.85,WNW,288,5.0,-999.0,95,-99.99,,,-99.99,,2015-07-03 09:53:00,
2015-07-03 05:03:00,73.0,72.0,29.86,SW,221,3.0,-999.0,96,-99.99,,,-99.99,,2015-07-03 10:03:00,
2015-07-03 05:13:00,73.0,72.0,29.86,SSW,205,2.0,-999.0,96,-99.99,,,-99.99,,2015-07-03 10:13:00,
2015-07-03 05:23:00,73.0,72.0,29.86,SW,227,4.0,-999.0,96,-99.99,,,-99.99,,2015-07-03 10:23:00,
2015-07-03 05:33:00,72.0,71.0,29.86,West,260,1.0,-999.0,96,-99.99,,,-99.99,,2015-07-03 10:33:00,
2015-07-03 05:43:00,72.0,71.0,29.86,WSW,247,2.0,-999.0,97,-99.99,,,-99.99,,2015-07-03 10:43:00,
2015-07-03 05:53:00,72.0,71.0,29.86,WSW,247,2.0,-999.0,97,-99.99,,,-99.99,,2015-07-03 10:53:00,
2015-07-03 06:03:00,72.0,71.0,29.86,WSW,247,2.0,-999.0,97,-99.99,,,-99.99,,2015-07-03 11:03:00,
2015-07-03 06:13:00,72.0,71.0,29.86,WSW,247,2.0,-999.0,97,-99.99,,,-99.99,,2015-07-03 11:13:00,
2015-07-03 06:23:00,71.0,70.0,29.88,SW,216,2.0,-999.0,97,-99.99,,,-99.99,,2015-07-03 11:23:00,
2015-07-03 06:34:00,71.0,70.0,29.87,SSW,208,1.0,-999.0,97,-99.99,,,-99.99,,2015-07-03 11:34:00,
2015-07-03 06:44:00,71.0,70.0,29.87,SSW,208,1.0,-999.0,97,-99.99,,,-99.99,,2015-07-03 11:44:00,
2015-07-03 07:03:00,70.0,69.0,29.88,WSW,241,0.0,-999.0,97,-99.99,,,-99.99,,2015-07-03 12:03:00,
2015-07-03 07:13:00,70.0,69.0,29.89,SSW,193,0.0,-999.0,98,-99.99,,,-99.99,,2015-07-03 12:13:00,
2015-07-03 07:23:00,70.0,69.0,29.89,SSW,196,0.0,-999.0,98,-99.99,,,-99.99,,2015-07-03 12:23:00,
2015-07-03 07:34:00,71.0,70.0,29.89,SSW,196,0.0,-999.0,98,-99.99,,,-99.99,,2015-07-03 12:34:00,
2015-07-03 07:44:00,71.0,70.0,29.94,SW,220,1.0,-999.0,98,-99.99,,,-99.99,,2015-07-03 12:44:00,
2015-07-03 07:54:00,71.0,70.0,29.94,SW,220,1.0,-999.0,98,-99.99,,,-99.99,,2015-07-03 12:54:00,
2015-07-03 08:03:00,69.0,68.0,29.92,WSW,241,1.0,-999.0,97,-99.99,,,-99.99,,2015-07-03 13:03:00,
2015-07-03 08:13:00,69.0,68.0,29.93,NNE,18,0.0,-999.0,98,-99.99,,,-99.99,,2015-07-03 13:13:00,
2015-07-03 08:23:00,69.0,68.0,29.93,NNE,18,0.0,-999.0,98,-99.99,,,-99.99,,2015-07-03 13:23:00,
2015-07-03 08:33:00,69.0,68.0,29.93,NNE,18,0.0,-999.0,98,-99.99,,,-99.99,,2015-07-03 13:33:00,
2015-07-03 08:43:00,69.0,68.0,29.93,NNE,18,0.0,-999.0,98,-99.99,,,-99.99,,2015-07-03 13:43:00,
2015-07-03 08:54:00,69.0,68.0,29.93,NNE,18,0.0,-999.0,98,-99.99,,,-99.99,,2015-07-03 13:54:00,
2015-07-03 09:03:00,70.0,69.0,29.93,SW,228,0.0,-999.0,98,-99.99,,,-99.99,,2015-07-03 14:03:00,
2015-07-03 09:13:00,70.0,69.0,29.93,SW,219,0.0,-999.0,98,-99.99,,,-99.99,,2015-07-03 14:13:00,
2015-07-03 09:23:00,70.0,69.0,29.93,SW,228,1.0,-999.0,98,-99.99,,,-99.99,,2015-07-03 14:23:00,
2015-07-03 09:33:00,70.0,69.0,29.93,SW,228,1.0,-999.0,98,-99.99,,,-99.99,,2015-07-03 14:33:00,
2015-07-03 09:43:00,70.0,69.0,29.93,SSW,206,3.0,-999.0,98,-99.99,,,-99.99,,2015-07-03 14:43:00,
2015-07-03 10:03:00,70.0,69.0,29.93,SW,214,2.0,-999.0,98,-99.99,,,-99.99,,2015-07-03 15:03:00,
2015-07-03 10:13:00,70.0,69.0,29.92,ESE,121,2.0,-999.0,98,-99.99,,,-99.99,,2015-07-03 15:13:00,
2015-07-03 10:23:00,71.0,70.0,29.93,WSW,248,3.0,-999.0,98,-99.99,,,-99.99,,2015-07-03 15:23:00,
2015-07-03 10:33:00,71.0,70.0,29.93,WSW,248,3.0,-999.0,98,-99.99,,,-99.99,,2015-07-03 15:33:00,
2015-07-03 10:44:00,71.0,70.0,29.93,WSW,248,3.0,-999.0,98,-99.99,,,-99.99,,2015-07-03 15:44:00,
2015-07-03 10:53:00,71.0,70.0,29.93,WSW,248,3.0,-999.0,98,-99.99,,,-99.99,,2015-07-03 15:53:00,
2015-07-03 11:04:00,72.0,71.0,29.93,WSW,239,1.0,-999.0,98,-99.99,,,-99.99,,2015-07-03 16:04:00,
2015-07-03 11:13:00,71.0,70.0,29.93,WSW,249,2.0,-999.0,98,-99.99,,,-99.99,,2015-07-03 16:13:00,
2015-07-03 11:24:00,71.0,70.0,29.93,WSW,249,2.0,-999.0,98,-99.99,,,-99.99,,2015-07-03 16:24:00,
2015-07-03 11:33:00,72.0,71.0,29.93,SW,223,2.0,-999.0,98,-99.99,,,-99.99,,2015-07-03 16:33:00,
2015-07-03 11:43:00,71.0,70.0,29.93,WNW,301,3.0,-999.0,98,-99.99,,,-99.99,,2015-07-03 16:43:00,
2015-07-03 11:53:00,71.0,70.0,29.93,SW,223,3.0,-999.0,98,-99.99,,,-99.99,,2015-07-03 16:53:00,
2015-07-03 12:04:00,71.0,70.0,29.93,WSW,243,3.0,-999.0,98,-99.99,,,-99.99,,2015-07-03 17:04:00,
2015-07-03 12:13:00,71.0,70.0,29.94,SSW,208,3.0,-999.0,98,-99.99,,,-99.99,,2015-07-03 17:13:00,
2015-07-03 12:23:00,71.0,70.0,29.94,WSW,245,2.0,-999.0,98,-99.99,,,-99.99,,2015-07-03 17:23:00,
2015-07-03 12:34:00,72.0,71.0,29.94,SW,224,4.0,-999.0,98,-99.99,,,-99.99,,2015-07-03 17:34:00,
2015-07-03 12:44:00,72.0,71.0,29.94,WSW,253,5.0,-999.0,98,-99.99,,,-99.99,,2015-07-03 17:44:00,
2015-07-03 13:04:00,72.0,71.0,29.94,WSW,241,3.0,-999.0,98,-99.99,,,-99.99,,2015-07-03 18:04:00,
2015-07-03 13:13:00,72.0,71.0,29.95,SSW,207,3.0,-999.0,98,-99.99,,,-99.99,,2015-07-03 18:13:00,
2015-07-03 13:24:00,72.0,71.0,29.95,SW,216,2.0,-999.0,97,-99.99,,,-99.99,,2015-07-03 18:24:00,
2015-07-03 13:34:00,72.0,71.0,29.95,SW,216,2.0,-999.0,97,-99.99,,,-99.99,,2015-07-03 18:34:00,
2015-07-03 13:44:00,73.0,72.0,29.95,NW,312,2.0,-999.0,97,-99.99,,,-99.99,,2015-07-03 18:44:00,
2015-07-03 13:53:00,73.0,72.0,29.96,SSW,213,4.0,-999.0,96,-99.99,,,-99.99,,2015-07-03 18:53:00,
2015-07-03 14:03:00,73.0,71.0,29.95,West,260,5.0,-999.0,95,-99.99,,,-99.99,,2015-07-03 19:03:00,
2015-07-03 14:13:00,74.0,72.0,29.95,SW,225,3.0,-999.0,94,-99.99,,,-99.99,,2015-07-03 19:13:00,
2015-07-03 14:24:00,74.0,72.0,29.94,West,272,3.0,-999.0,92,-99.99,,,-99.99,,2015-07-03 19:24:00,
2015-07-03 14:34:00,74.0,72.0,29.95,WSW,237,2.0,-999.0,92,-99.99,,,-99.99,,2015-07-03 19:34:00,
2015-07-03 14:44:00,74.0,71.0,29.95,West,260,1.0,-999.0,91,-99.99,,,-99.99,,2015-07-03 19:44:00,
2015-07-03 14:53:00,74.0,71.0,29.94,NW,308,5.0,-999.0,89,-99.99,,,-99.99,,2015-07-03 19:53:00,
2015-07-03 15:03:00,73.0,70.0,29.93,NW,326,4.0,-999.0,90,-99.99,,,-99.99,,2015-07-03 20:03:00,
2015-07-03 15:13:00,73.0,70.0,29.94,WSW,237,2.0,-999.0,91,-99.99,,,-99.99,,2015-07-03 20:13:00,
2015-07-03 15:23:00,73.0,71.0,29.94,WSW,251,2.0,-999.0,92,-99.99,,,-99.99,,2015-07-03 20:23:00,
2015-07-03 15:34:00,73.0,71.0,29.94,WSW,251,2.0,-999.0,92,-99.99,,,-99.99,,2015-07-03 20:34:00,
2015-07-03 15:43:00,73.0,71.0,29.93,SSW,210,3.0,-999.0,93,-99.99,,,-99.99,,2015-07-03 20:43:00,
2015-07-03 15:53:00,73.0,71.0,29.93,West,266,3.0,-999.0,93,-99.99,,,-99.99,,2015-07-03 20:53:00,
2015-07-03 16:03:00,73.0,71.0,29.93,WSW,248,3.0,-999.0,92,-99.99,,,-99.99,,2015-07-03 21:03:00,
2015-07-03 16:13:00,72.0,70.0,29.93,WSW,251,3.0,-999.0,92,-99.99,,,-99.99,,2015-07-03 21:13:00,
2015-07-03 16:23:00,72.0,70.0,29.93,WSW,253,2.0,-999.0,92,-99.99,,,-99.99,,2015-07-03 21:23:00,
2015-07-03 16:33:00,72.0,70.0,29.93,WSW,253,2.0,-999.0,92,-99.99,,,-99.99,,2015-07-03 21:33:00,
2015-07-03 16:43:00,72.0,70.0,29.93,WSW,253,2.0,-999.0,92,-99.99,,,-99.99,,2015-07-03 21:43:00,
2015-07-03 17:03:00,71.0,69.0,29.93,West,273,1.0,-999.0,94,-99.99,,,-99.99,,2015-07-03 22:03:00,
2015-07-03 17:13:00,71.0,69.0,29.93,West,273,1.0,-999.0,94,-99.99,,,-99.99,,2015-07-03 22:13:00,
2015-07-03 17:23:00,71.0,69.0,29.93,SW,215,0.0,-999.0,95,-99.99,,,-99.99,,2015-07-03 22:23:00,
2015-07-03 17:33:00,71.0,69.0,29.92,WNW,303,1.0,-999.0,95,-99.99,,,-99.99,,2015-07-03 22:33:00,
2015-07-03 17:44:00,72.0,70.0,29.91,WSW,253,1.0,-999.0,95,-99.99,,,-99.99,,2015-07-03 22:44:00,
2015-07-03 17:54:00,72.0,70.0,29.90,SW,227,1.0,-999.0,95,-99.99,,,-99.99,,2015-07-03 22:54:00,
2015-07-03 18:04:00,72.0,70.0,29.90,SSW,205,1.0,-999.0,95,-99.99,,,-99.99,,2015-07-03 23:04:00,
2015-07-03 18:13:00,72.0,70.0,29.90,WSW,247,2.0,-999.0,95,-99.99,,,-99.99,,2015-07-03 23:13:00,
2015-07-03 18:23:00,72.0,70.0,29.90,WSW,249,1.0,-999.0,95,-99.99,,,-99.99,,2015-07-03 23:23:00,
2015-07-03 18:33:00,72.0,70.0,29.90,WSW,249,1.0,-999.0,95,-99.99,,,-99.99,,2015-07-03 23:33:00,
2015-07-03 18:43:00,72.0,70.0,29.89,SW,227,1.0,-999.0,95,-99.99,,,-99.99,,2015-07-03 23:43:00,
2015-07-03 19:03:00,72.0,70.0,29.88,SW,220,1.0,-999.0,95,-99.99,,,-99.99,,2015-07-04 00:03:00,
2015-07-03 19:13:00,72.0,70.0,29.91,SW,233,1.0,-999.0,95,-99.99,,,-99.99,,2015-07-04 00:13:00,
2015-07-03 19:23:00,72.0,70.0,29.90,SW,222,0.0,-999.0,95,-99.99,,,-99.99,,2015-07-04 00:23:00,
2015-07-03 19:33:00,72.0,70.0,29.90,SW,223,0.0,-999.0,95,-99.99,,,-99.99,,2015-07-04 00:33:00,
2015-07-03 19:43:00,71.0,69.0,29.90,WNW,287,0.0,-999.0,95,-99.99,,,-99.99,,2015-07-04 00:43:00,
2015-07-03 20:03:00,71.0,69.0,29.90,WNW,283,0.0,-999.0,95,-99.99,,,-99.99,,2015-07-04 01:03:00,
2015-07-03 20:13:00,71.0,70.0,29.90,WNW,283,0.0,-999.0,96,-99.99,,,-99.99,,2015-07-04 01:13:00,
2015-07-03 20:23:00,71.0,70.0,29.91,WNW,283,0.0,-999.0,96,-99.99,,,-99.99,,2015-07-04 01:23:00,
2015-07-03 20:33:00,71.0,70.0,29.91,WNW,283,0.0,-999.0,96,-99.99,,,-99.99,,2015-07-04 01:33:00,
2015-07-03 20:43:00,71.0,70.0,29.91,WNW,283,0.0,-999.0,96,-99.99,,,-99.99,,2015-07-04 01:43:00,
2015-07-03 20:53:00,71.0,70.0,29.91,WNW,283,0.0,-999.0,96,-99.99,,,-99.99,,2015-07-04 01:53:00,
2015-07-03 21:03:00,71.0,70.0,29.92,WNW,283,0.0,-999.0,96,-99.99,,,-99.99,,2015-07-04 02:03:00,
2015-07-03 21:12:00,71.0,70.0,29.92,WNW,283,0.0,-999.0,96,-99.99,,,-99.99,,2015-07-04 02:12:00,
2015-07-03 21:23:00,71.0,70.0,29.92,WNW,283,0.0,-999.0,96,-99.99,,,-99.99,,2015-07-04 02:23:00,
2015-07-03 21:33:00,70.0,69.0,29.92,WNW,283,0.0,-999.0,97,-99.99,,,-99.99,,2015-07-04 02:33:00,
2015-07-03 21:43:00,70.0,69.0,29.92,WNW,283,0.0,-999.0,97,-99.99,,,-99.99,,2015-07-04 02:43:00,
2015-07-03 21:54:00,70.0,69.0,29.92,WNW,283,0.0,-999.0,97,-99.99,,,-99.99,,2015-07-04 02:54:00,
2015-07-03 22:03:00,70.0,69.0,29.92,WNW,283,0.0,-999.0,97,-99.99,,,-99.99,,2015-07-04 03:03:00,
2015-07-03 22:12:00,70.0,69.0,29.93,WNW,283,0.0,-999.0,97,-99.99,,,-99.99,,2015-07-04 03:12:00,
2015-07-03 22:23:00,70.0,69.0,29.93,WNW,283,0.0,-999.0,97,-99.99,,,-99.99,,2015-07-04 03:23:00,
2015-07-03 22:33:00,71.0,70.0,29.93,SE,130,0.0,-999.0,98,-99.99,,,-99.99,,2015-07-04 03:33:00,
2015-07-03 22:43:00,70.0,69.0,29.93,SE,130,0.0,-999.0,98,-99.99,,,-99.99,,2015-07-04 03:43:00,
2015-07-03 23:03:00,70.0,69.0,29.93,SE,130,0.0,-999.0,97,-99.99,,,-99.99,,2015-07-04 04:03:00,